STARLINK-4137, 53031

Orbit data source: Space-Track

STARLINK-4137, 53031 is a payload satellite owned by SpaceX/Seattle (US) in LEO that was launched on Thu, 07 Jul 2022 UTC via an FALCON 9 launch vehicle from the Air Force Eastern Test Range (AFETR). Payload-class satellites include a variety of spacecraft equipped with specific instruments for various scientific and technological missions. These include communications satellites like Starlink; space stations such as the ISS; scientific satellites like the Hubble; Earth observation satellites from companies like Planet Labs, Umbra, and HawkEye 360; GPS; miniature CubeSats for education and research; and military/defense satellites.

Loading next visibility...
Identifier
53031, 2022-076AX
Orbit
LEO
Country
Flag of USUS
Related business
Manufacturer
SpaceX/Seattle
Mission
Operational Commercial Communications
Bus & Motor
STARLINK, Unknown motor
Mass
297 kg wet, ~275 kg dry
Launch date (UTC)
2022-07-07 (3 years ago)
Launch vehicle
FALCON 9
Launch site
Air Force Eastern Test Range (AFETR)
Object type
Payload
Rocket body
Debris
Shape & HBR
Box + 1 Pan, 10.1 m
Radar Cross Section
13.562 m², Large (>1 m²)

Expand to show TLE details & history
Last TLE update: 18 hours ago

TLE from 18 hours ago
0 STARLINK-4137
1 53031U 22076AX  25340.68649821  .00000695  00000-0  61749-4 0  9998
2 53031  53.2164 131.6268 0001298  85.8118 274.3023 15.08839712189084
Epoch: 2025-12-06T16:28Z
TLE epoch observation values (Epoch: 2025-12-06T16:28:33.445Z)
Latitude
0.00003°
Longitude
168.77679°
Altitude
540.574 km
Speed
7.593 km/s
True Right ascension
08h 46m 30s
True Declination
0° 00' 00"
Sunlit
Object was in full shadow at epoch
Visualization orbit readout
Latitude
Unknown
Longitude
Unknown
Altitude
Unknown
Speed
Unknown
Apparent Right ascension
Unknown
Apparent Declination
Unknown
Sunlit
N/A
Visualization observer readout
Local Sidereal Time
08:33:39
Azimuth
Unknown
Elevation
Unknown
Doppler factor
Unknown
Orbital elements
Apogee altitude
540.887 km
Perigee altitude
539.091 km
Semi-major axis
6,918.126 km
Eccentricity
0.00013
Inclination
53.2164°
RAAN
131.6268°
Arg. of periapsis
85.8118°
True anomaly
274.28747°
Mean anomaly
274.3023°
Eccentric anomaly
274.29488°
Mean motion
3.7719 °/min
Orbital period
95.44 mins
BSTAR
0.000061749
Loading maneuver chart data...
Computing Atmospheric mass density...
Loading historical data...
Loading historical data...
Loading historical data...
Loading historical data...
Loading historical data...
Loading historical data...
Loading historical data...

Documentation

Showing up to 5 results
|